| time (UTC) | temp F | wind direction | speed knots | gust knots | rain 1hr in | rain 24hr in | rain mn in | humidity % | barometer mb |
| 20260901212004 | 81 | 360 | 2.6 | 7.0 | 0.00 | 0.00 | 0.00 | 75 | 1013.5 |
| 20260901211524 | 81 | 242 | 1.7 | 7.0 | 0.00 | 0.00 | 0.00 | 76 | 1013.4 |
| 20260901211006 | 81 | 243 | 2.6 | 5.2 | 0.00 | 0.00 | 0.00 | 76 | 1013.5 |
| 20260901210523 | 81 | 360 | 3.5 | 5.2 | 0.00 | 0.00 | 0.00 | 75 | 1013.4 |
| 20260901210028 | 81 | 360 | 1.7 | 7.0 | 0.00 | 0.00 | 0.00 | 75 | 1013.5 |
| 20260901205551 | 82 | 248 | 3.5 | 7.8 | 0.00 | 0.00 | 0.00 | 74 | 1013.4 |
| 20260901205057 | 82 | 360 | 3.5 | 7.8 | 0.00 | 0.00 | 0.00 | 74 | 1013.4 |
| 20260901204508 | 82 | 360 | 2.6 | 7.0 | 0.00 | 0.00 | 0.00 | 75 | 1013.3 |
| 20260901204047 | 82 | 360 | 3.5 | 7.8 | 0.00 | 0.00 | 0.00 | 75 | 1013.3 |
| 20260901203553 | 81 | 360 | 4.3 | 7.8 | 0.00 | 0.00 | 0.00 | 75 | 1013.3 |
| 20260901203103 | 81 | 231 | 3.5 | 6.1 | 0.00 | 0.00 | 0.00 | 75 | 1013.3 |
| 20260901202539 | 81 | 234 | 1.7 | 8.7 | 0.00 | 0.00 | 0.00 | 77 | 1013.3 |
| 20260901202042 | 81 | 244 | 3.5 | 8.7 | 0.00 | 0.00 | 0.00 | 77 | 1013.4 |
| 20260901201548 | 81 | 257 | 3.5 | 9.6 | 0.00 | 0.00 | 0.00 | 78 | 1013.4 |
| 20260901201051 | 80 | 280 | 3.5 | 9.6 | 0.00 | 0.00 | 0.00 | 78 | 1013.4 |
| 20260901200559 | 80 | 360 | 4.3 | 8.7 | 0.00 | 0.00 | 0.00 | 77 | 1013.6 |
| 20260901200503 | 81 | 234 | 4.3 | 8.7 | 0.00 | 0.00 | 0.00 | 77 | 1013.6 |
| 20260901200005 | 81 | 244 | 2.6 | 9.6 | 0.00 | 0.00 | 0.00 | 79 | 1013.7 |
| 20260901195519 | 80 | 360 | 5.2 | 10.4 | 0.00 | 0.00 | 0.00 | 77 | 1013.7 |
| 20260901195025 | 80 | 360 | 4.3 | 10.4 | 0.00 | 0.00 | 0.00 | 77 | 1013.6 |
| 20260901194535 | 80 | 279 | 5.2 | 9.6 | 0.00 | 0.00 | 0.00 | 78 | 1013.4 |
| 20260901194045 | 80 | 232 | 4.3 | 9.6 | 0.00 | 0.00 | 0.00 | 78 | 1013.4 |
| 20260901193551 | 80 | 360 | 5.2 | 11.3 | 0.00 | 0.00 | 0.00 | 78 | 1013.5 |
| 20260901193055 | 80 | 264 | 5.2 | 11.3 | 0.00 | 0.00 | 0.00 | 79 | 1013.5 |
| 20260901192553 | 80 | 360 | 5.2 | 11.3 | 0.00 | 0.00 | 0.00 | 79 | 1013.5 |
| 20260901192057 | 80 | 360 | 6.1 | 12.2 | 0.00 | 0.00 | 0.00 | 79 | 1013.6 |
| 20260901191545 | 80 | 360 | 5.2 | 12.2 | 0.00 | 0.00 | 0.00 | 80 | 1013.6 |
| 20260901191039 | 80 | 360 | 4.3 | 14.8 | 0.00 | 0.00 | 0.00 | 81 | 1013.7 |
| 20260901190547 | 80 | 360 | 6.1 | 12.2 | 0.00 | 0.00 | 0.00 | 80 | 1013.7 |
| 20260901190051 | 80 | 360 | 7.0 | 13.9 | 0.00 | 0.00 | 0.00 | 80 | 1013.6 |
| 20260901185559 | 80 | 360 | 6.1 | 15.6 | 0.00 | 0.00 | 0.00 | 81 | 1013.6 |
| 20260901185038 | 80 | 360 | 6.1 | 13.0 | 0.00 | 0.00 | 0.00 | 81 | 1013.6 |
| 20260901184555 | 80 | 360 | 6.1 | 13.0 | 0.00 | 0.00 | 0.00 | 80 | 1013.6 |
| 20260901184040 | 80 | 360 | 7.0 | 13.0 | 0.00 | 0.00 | 0.00 | 80 | 1013.6 |
| 20260901183523 | 81 | 360 | 7.0 | 13.0 | 0.00 | 0.00 | 0.00 | 79 | 1013.5 |
| 20260901183030 | 81 | 262 | 7.0 | 12.2 | 0.00 | 0.00 | 0.00 | 80 | 1013.5 |
| 20260901182517 | 81 | 360 | 6.1 | 12.2 | 0.00 | 0.00 | 0.00 | 80 | 1013.4 |
| 20260901182026 | 81 | 360 | 6.1 | 13.0 | 0.00 | 0.00 | 0.00 | 80 | 1013.4 |
| 20260901181524 | 81 | 360 | 4.3 | 10.4 | 0.00 | 0.00 | 0.00 | 80 | 1013.3 |
| 20260901181029 | 81 | 360 | 5.2 | 10.4 | 0.00 | 0.00 | 0.00 | 80 | 1013.2 |
| 20260901180537 | 81 | 360 | 5.2 | 12.2 | 0.00 | 0.00 | 0.00 | 81 | 1013.2 |
| 20260901175545 | 81 | 360 | 6.1 | 12.2 | 0.00 | 0.00 | 0.00 | 81 | 1013.4 |
| 20260901175045 | 81 | 360 | 7.0 | 11.3 | 0.00 | 0.00 | 0.00 | 81 | 1013.3 |
| 20260901174555 | 80 | 268 | 5.2 | 10.4 | 0.00 | 0.00 | 0.00 | 81 | 1013.3 |
| 20260901174002 | 81 | 242 | 6.1 | 10.4 | 0.00 | 0.00 | 0.00 | 80 | 1013.4 |
| 20260901173509 | 80 | 251 | 6.1 | 11.3 | 0.00 | 0.00 | 0.00 | 81 | 1013.4 |
| 20260901173007 | 80 | 360 | 7.0 | 11.3 | 0.00 | 0.00 | 0.00 | 81 | 1013.4 |
| 20260901172517 | 80 | 360 | 6.1 | 13.0 | 0.00 | 0.00 | 0.00 | 82 | 1013.5 |
| 20260901172059 | 80 | 293 | 6.1 | 13.0 | 0.00 | 0.00 | 0.00 | 82 | 1013.6 |
| 20260901171510 | 79 | 360 | 7.0 | 15.6 | 0.00 | 0.00 | 0.00 | 82 | 1013.6 |
| 20260901171007 | 80 | 236 | 8.7 | 14.8 | 0.00 | 0.00 | 0.00 | 82 | 1013.6 |
| 20260901170527 | 80 | 360 | 7.0 | 13.9 | 0.00 | 0.00 | 0.00 | 82 | 1013.6 |
| 20260901170029 | 80 | 276 | 4.3 | 11.3 | 0.00 | 0.00 | 0.00 | 82 | 1013.5 |
| 20260901165529 | 80 | 360 | 7.0 | 13.0 | 0.00 | 0.00 | 0.00 | 82 | 1013.5 |
| 20260901165039 | 80 | 360 | 6.1 | 13.0 | 0.00 | 0.00 | 0.00 | 83 | 1013.5 |
| 20260901164539 | 79 | 360 | 6.1 | 13.9 | 0.00 | 0.00 | 0.00 | 83 | 1013.6 |
| 20260901164043 | 79 | 360 | 7.8 | 14.8 | 0.00 | 0.00 | 0.00 | 82 | 1013.6 |
| 20260901163525 | 79 | 360 | 7.8 | 14.8 | 0.00 | 0.00 | 0.00 | 83 | 1013.7 |
| 20260901163037 | 80 | 360 | 6.1 | 13.0 | 0.00 | 0.00 | 0.00 | 82 | 1013.7 |
| 20260901162543 | 80 | 360 | 6.1 | 13.9 | 0.00 | 0.00 | 0.00 | 83 | 1013.6 |
| 20260901162048 | 79 | 360 | 7.0 | 13.0 | 0.00 | 0.00 | 0.00 | 82 | 1013.6 |
| 20260901161559 | 80 | 268 | 7.0 | 13.0 | 0.00 | 0.00 | 0.00 | 82 | 1013.5 |
| 20260901161501 | 80 | 360 | 5.2 | 13.0 | 0.00 | 0.00 | 0.00 | 82 | 1013.5 |
| 20260901161009 | 80 | 360 | 7.8 | 13.0 | 0.00 | 0.00 | 0.00 | 82 | 1013.5 |
| 20260901160516 | 80 | 360 | 6.1 | 13.0 | 0.00 | 0.00 | 0.00 | 82 | 1013.5 |
| 20260901160034 | 80 | 274 | 5.2 | 12.2 | 0.00 | 0.00 | 0.00 | 82 | 1013.4 |
| 20260901155531 | 80 | 360 | 6.1 | 12.2 | 0.00 | 0.00 | 0.00 | 82 | 1013.4 |
| 20260901155025 | 79 | 360 | 7.0 | 12.2 | 0.00 | 0.00 | 0.00 | 82 | 1013.4 |
| 20260901154530 | 79 | 360 | 6.1 | 11.3 | 0.00 | 0.00 | 0.00 | 82 | 1013.2 |
| 20260901154033 | 79 | 360 | 6.1 | 11.3 | 0.00 | 0.00 | 0.00 | 82 | 1013.3 |
| 20260901153543 | 79 | 360 | 5.2 | 11.3 | 0.00 | 0.00 | 0.00 | 82 | 1013.4 |
| 20260901153048 | 79 | 360 | 6.1 | 11.3 | 0.00 | 0.00 | 0.00 | 81 | 1013.4 |
| 20260901152530 | 79 | 276 | 5.2 | 11.3 | 0.00 | 0.00 | 0.00 | 81 | 1013.4 |
| 20260901152013 | 79 | 360 | 5.2 | 10.4 | 0.00 | 0.00 | 0.00 | 80 | 1013.5 |
| 20260901151529 | 80 | 360 | 6.1 | 9.6 | 0.00 | 0.00 | 0.00 | 81 | 1013.4 |
| 20260901151051 | 79 | 242 | 4.3 | 11.3 | 0.00 | 0.00 | 0.00 | 81 | 1013.3 |
| 20260901150544 | 79 | 360 | 5.2 | 11.3 | 0.00 | 0.00 | 0.00 | 81 | 1013.3 |
| 20260901150051 | 79 | 360 | 5.2 | 11.3 | 0.00 | 0.00 | 0.00 | 82 | 1013.4 |
| 20260901145559 | 79 | 360 | 5.2 | 11.3 | 0.00 | 0.00 | 0.00 | 82 | 1013.4 |
| 20260901145501 | 79 | 360 | 6.1 | 11.3 | 0.00 | 0.00 | 0.00 | 82 | 1013.3 |
| 20260901145102 | 79 | 251 | 5.2 | 11.3 | 0.00 | 0.00 | 0.00 | 81 | 1013.3 |
| 20260901144546 | 79 | 360 | 5.2 | 11.3 | 0.00 | 0.00 | 0.00 | 81 | 1013.3 |
| 20260901144048 | 79 | 280 | 6.1 | 11.3 | 0.00 | 0.00 | 0.00 | 81 | 1013.3 |
| 20260901143554 | 79 | 247 | 3.5 | 13.0 | 0.00 | 0.00 | 0.00 | 82 | 1013.3 |
| 20260901143058 | 79 | 233 | 5.2 | 13.9 | 0.00 | 0.00 | 0.00 | 81 | 1013.3 |
| 20260901142541 | 79 | 360 | 6.1 | 13.9 | 0.00 | 0.00 | 0.00 | 82 | 1013.3 |
| 20260901142032 | 78 | 203 | 4.3 | 10.4 | 0.00 | 0.00 | 0.00 | 82 | 1013.4 |
| 20260901141523 | 78 | 360 | 3.5 | 9.6 | 0.00 | 0.00 | 0.00 | 83 | 1013.4 |
| 20260901141023 | 78 | 360 | 3.5 | 10.4 | 0.00 | 0.00 | 0.00 | 83 | 1013.6 |
| 20260901140524 | 78 | 360 | 4.3 | 10.4 | 0.00 | 0.00 | 0.00 | 82 | 1013.7 |
| 20260901140017 | 78 | 235 | 5.2 | 10.4 | 0.00 | 0.00 | 0.00 | 82 | 1013.7 |
| 20260901135525 | 78 | 360 | 5.2 | 10.4 | 0.00 | 0.00 | 0.00 | 82 | 1013.8 |
| 20260901135037 | 78 | 259 | 4.3 | 12.2 | 0.00 | 0.00 | 0.00 | 82 | 1013.7 |
| 20260901134557 | 78 | 360 | 3.5 | 12.2 | 0.00 | 0.00 | 0.00 | 81 | 1013.7 |
| 20260901134049 | 78 | 360 | 4.3 | 10.4 | 0.00 | 0.00 | 0.00 | 81 | 1013.7 |
| 20260901133553 | 78 | 273 | 4.3 | 10.4 | 0.00 | 0.00 | 0.00 | 81 | 1013.6 |
| 20260901133039 | 78 | 271 | 6.1 | 10.4 | 0.00 | 0.00 | 0.00 | 81 | 1013.6 |
| 20260901132545 | 78 | 360 | 4.3 | 9.6 | 0.00 | 0.00 | 0.00 | 81 | 1013.7 |
| 20260901132051 | 78 | 246 | 4.3 | 8.7 | 0.00 | 0.00 | 0.00 | 81 | 1013.8 |
| 20260901131600 | 78 | 360 | 4.3 | 9.6 | 0.00 | 0.00 | 0.00 | 81 | 1013.7 |
| 20260901131102 | 78 | 254 | 4.3 | 9.6 | 0.00 | 0.00 | 0.00 | 81 | 1013.6 |
| 20260901130550 | 78 | 240 | 3.5 | 8.7 | 0.00 | 0.00 | 0.00 | 81 | 1013.7 |
| 20260901130108 | 78 | 273 | 3.5 | 8.7 | 0.00 | 0.00 | 0.00 | 81 | 1013.8 |
| 20260901125505 | 78 | 252 | 3.5 | 9.6 | 0.00 | 0.00 | 0.00 | 81 | 1013.7 |
| 20260901125019 | 78 | 360 | 1.7 | 9.6 | 0.00 | 0.00 | 0.00 | 81 | 1013.7 |
| 20260901124524 | 78 | 360 | 2.6 | 7.8 | 0.00 | 0.00 | 0.00 | 80 | 1013.9 |
| 20260901124002 | 78 | 254 | 2.6 | 7.8 | 0.00 | 0.00 | 0.00 | 80 | 1013.9 |
| 20260901123517 | 78 | 360 | 3.5 | 8.7 | 0.00 | 0.00 | 0.00 | 80 | 1013.9 |
| 20260901123057 | 78 | 244 | 4.3 | 8.7 | 0.00 | 0.00 | 0.00 | 80 | 1013.9 |
| 20260901122507 | 78 | 257 | 3.5 | 8.7 | 0.00 | 0.00 | 0.00 | 80 | 1013.9 |
| 20260901122006 | 78 | 360 | 2.6 | 8.7 | 0.00 | 0.00 | 0.00 | 80 | 1013.9 |
| 20260901121557 | 78 | 236 | 2.6 | 7.8 | 0.00 | 0.00 | 0.00 | 79 | 1013.8 |
| 20260901121100 | 78 | 360 | 2.6 | 7.0 | 0.00 | 0.00 | 0.00 | 79 | 1013.7 |
| 20260901120513 | 78 | 240 | 2.6 | 7.0 | 0.00 | 0.00 | 0.00 | 79 | 1013.6 |
| 20260901120007 | 78 | 360 | 2.6 | 7.8 | 0.00 | 0.01 | 0.00 | 79 | 1013.6 |
| 20260901115523 | 78 | 360 | 3.5 | 7.8 | 0.00 | 0.01 | 0.00 | 79 | 1013.5 |
| 20260901115031 | 78 | 245 | 1.7 | 9.6 | 0.00 | 0.01 | 0.00 | 79 | 1013.5 |
| 20260901114539 | 78 | 240 | 2.6 | 9.6 | 0.00 | 0.01 | 0.00 | 79 | 1013.3 |
| 20260901114043 | 78 | 197 | 1.7 | 7.8 | 0.00 | 0.01 | 0.00 | 78 | 1013.3 |
| 20260901113527 | 78 | 244 | 1.7 | 7.8 | 0.00 | 0.01 | 0.00 | 78 | 1013.3 |
| 20260901113030 | 78 | 223 | 3.5 | 10.4 | 0.00 | 0.01 | 0.00 | 78 | 1013.2 |
| 20260901112512 | 78 | 215 | 3.5 | 13.9 | 0.00 | 0.01 | 0.00 | 78 | 1013.2 |
| 20260901112024 | 78 | 360 | 5.2 | 13.9 | 0.00 | 0.01 | 0.00 | 78 | 1013.2 |
| 20260901111530 | 78 | 259 | 2.6 | 7.8 | 0.00 | 0.01 | 0.00 | 78 | 1013.1 |
| 20260901111041 | 78 | 360 | 2.6 | 9.6 | 0.00 | 0.01 | 0.00 | 78 | 1013.2 |
| 20260901110551 | 78 | 360 | 2.6 | 9.6 | 0.00 | 0.01 | 0.00 | 78 | 1013.0 |
| 20260901105600 | 78 | 251 | 2.6 | 8.7 | 0.00 | 0.01 | 0.00 | 77 | 1012.9 |
| 20260901105002 | 78 | 252 | 2.6 | 7.8 | 0.00 | 0.01 | 0.00 | 77 | 1012.9 |
| 20260901104514 | 78 | 200 | 2.6 | 7.8 | 0.00 | 0.01 | 0.00 | 77 | 1012.9 |
| 20260901104027 | 78 | 226 | 2.6 | 9.6 | 0.00 | 0.01 | 0.00 | 77 | 1012.9 |
| 20260901103533 | 78 | 360 | 2.6 | 9.6 | 0.00 | 0.01 | 0.00 | 77 | 1012.7 |
| 20260901103034 | 78 | 360 | 1.7 | 7.8 | 0.00 | 0.01 | 0.00 | 77 | 1012.7 |
| 20260901102517 | 78 | 155 | 1.7 | 7.8 | 0.00 | 0.01 | 0.00 | 76 | 1012.6 |
| 20260901102044 | 78 | 281 | 3.5 | 7.8 | 0.00 | 0.01 | 0.00 | 76 | 1012.6 |
| 20260901101541 | 78 | 360 | 2.6 | 7.8 | 0.00 | 0.01 | 0.00 | 76 | 1012.4 |
| 20260901101030 | 78 | 240 | 2.6 | 10.4 | 0.00 | 0.01 | 0.00 | 76 | 1012.4 |
| 20260901100536 | 78 | 216 | 2.6 | 10.4 | 0.00 | 0.01 | 0.00 | 76 | 1012.4 |
| 20260901100052 | 78 | 220 | 3.5 | 8.7 | 0.00 | 0.03 | 0.00 | 76 | 1012.4 |
| 20260901095550 | 78 | 210 | 3.5 | 8.7 | 0.00 | 0.03 | 0.00 | 75 | 1012.4 |
| 20260901095057 | 78 | 360 | 2.6 | 7.8 | 0.00 | 0.03 | 0.00 | 75 | 1012.4 |
| 20260901094506 | 78 | 197 | 1.7 | 7.0 | 0.00 | 0.03 | 0.00 | 74 | 1012.4 |
| 20260901094056 | 79 | 220 | 2.6 | 7.8 | 0.00 | 0.03 | 0.00 | 74 | 1012.4 |
| 20260901093601 | 79 | 234 | 4.3 | 10.4 | 0.00 | 0.03 | 0.00 | 74 | 1012.4 |
| 20260901093048 | 79 | 360 | 4.3 | 10.4 | 0.00 | 0.03 | 0.00 | 74 | 1012.3 |
| 20260901092554 | 78 | 225 | 3.5 | 9.6 | 0.00 | 0.03 | 0.00 | 74 | 1012.4 |
| 20260901092054 | 78 | 205 | 2.6 | 9.6 | 0.00 | 0.03 | 0.00 | 74 | 1012.4 |
| 20260901091602 | 78 | 360 | 2.6 | 9.6 | 0.00 | 0.03 | 0.00 | 74 | 1012.4 |
| 20260901091502 | 78 | 224 | 3.5 | 9.6 | 0.00 | 0.03 | 0.00 | 74 | 1012.4 |
| 20260901091005 | 78 | 236 | 3.5 | 8.7 | 0.00 | 0.03 | 0.00 | 74 | 1012.4 |
| 20260901090518 | 78 | 360 | 2.6 | 6.1 | 0.00 | 0.03 | 0.00 | 74 | 1012.4 |
| 20260901090022 | 78 | 225 | 1.7 | 7.0 | 0.00 | 0.05 | 0.00 | 74 | 1012.5 |
| 20260901085526 | 78 | 360 | 2.6 | 8.7 | 0.00 | 0.05 | 0.00 | 74 | 1012.5 |
| 20260901085032 | 78 | 194 | 1.7 | 8.7 | 0.00 | 0.05 | 0.00 | 75 | 1012.4 |
| 20260901084544 | 78 | 165 | 2.6 | 6.1 | 0.00 | 0.05 | 0.00 | 75 | 1012.4 |
| 20260901084042 | 77 | 211 | 1.7 | 6.1 | 0.00 | 0.05 | 0.00 | 74 | 1012.3 |
| 20260901083548 | 78 | 256 | 1.7 | 9.6 | 0.00 | 0.05 | 0.00 | 74 | 1012.3 |
| 20260901083036 | 77 | 216 | 1.7 | 8.7 | 0.00 | 0.05 | 0.00 | 74 | 1012.2 |
| 20260901082542 | 78 | 210 | 1.7 | 8.7 | 0.00 | 0.05 | 0.00 | 74 | 1012.3 |
| 20260901082032 | 78 | 194 | 1.7 | 8.7 | 0.00 | 0.05 | 0.00 | 73 | 1012.3 |
| 20260901081540 | 78 | 165 | 3.5 | 12.2 | 0.00 | 0.05 | 0.00 | 73 | 1012.4 |
| 20260901081048 | 78 | 196 | 3.5 | 12.2 | 0.00 | 0.05 | 0.00 | 73 | 1012.5 |
| 20260901080554 | 78 | 173 | 4.3 | 11.3 | 0.00 | 0.05 | 0.00 | 73 | 1012.5 |
| 20260901080045 | 78 | 174 | 3.5 | 11.3 | 0.00 | 0.05 | 0.00 | 72 | 1012.6 |
| 20260901075550 | 78 | 173 | 2.6 | 12.2 | 0.00 | 0.05 | 0.00 | 72 | 1012.5 |
| 20260901075055 | 77 | 175 | 4.3 | 12.2 | 0.00 | 0.05 | 0.00 | 72 | 1012.4 |
| 20260901074509 | 77 | 173 | 3.5 | 12.2 | 0.00 | 0.05 | 0.00 | 72 | 1012.5 |
| 20260901074055 | 78 | 209 | 2.6 | 12.2 | 0.00 | 0.05 | 0.00 | 71 | 1012.5 |
| 20260901073506 | 78 | 161 | 3.5 | 7.8 | 0.00 | 0.05 | 0.00 | 70 | 1012.7 |
| 20260901073020 | 77 | 182 | 3.5 | 12.2 | 0.00 | 0.05 | 0.00 | 70 | 1012.8 |
| 20260901072554 | 77 | 214 | 3.5 | 12.2 | 0.00 | 0.05 | 0.00 | 69 | 1012.8 |
| 20260901072102 | 77 | 180 | 3.5 | 8.7 | 0.00 | 0.05 | 0.00 | 69 | 1012.9 |
| 20260901071548 | 77 | 155 | 3.5 | 8.7 | 0.00 | 0.05 | 0.00 | 69 | 1012.9 |
| 20260901071002 | 77 | 186 | 2.6 | 8.7 | 0.00 | 0.05 | 0.00 | 69 | 1013.1 |
| 20260901070510 | 77 | 151 | 2.6 | 8.7 | 0.00 | 0.05 | 0.00 | 70 | 1013.0 |
| 20260901070100 | 77 | 158 | 2.6 | 12.2 | 0.00 | 0.07 | 0.00 | 71 | 1012.9 |
| 20260901065540 | 77 | 198 | 2.6 | 12.2 | 0.00 | 0.07 | 0.00 | 71 | 1012.8 |
| 20260901065042 | 77 | 200 | 3.5 | 9.6 | 0.00 | 0.07 | 0.00 | 72 | 1012.9 |
| 20260901064548 | 77 | 263 | 1.7 | 9.6 | 0.00 | 0.07 | 0.00 | 73 | 1013.0 |
| 20260901064036 | 77 | 196 | 2.6 | 9.6 | 0.00 | 0.07 | 0.00 | 72 | 1013.1 |
| 20260901063539 | 77 | 193 | 2.6 | 8.7 | 0.00 | 0.07 | 0.00 | 73 | 1013.1 |
| 20260901063030 | 77 | 133 | 2.6 | 9.6 | 0.00 | 0.07 | 0.00 | 73 | 1013.3 |
| 20260901062531 | 77 | 155 | 3.5 | 9.6 | 0.00 | 0.07 | 0.00 | 73 | 1013.5 |
| 20260901062040 | 76 | 214 | 3.5 | 8.7 | 0.00 | 0.07 | 0.00 | 74 | 1013.6 |
| 20260901061546 | 76 | 194 | 2.6 | 8.7 | 0.00 | 0.07 | 0.00 | 75 | 1013.4 |
| 20260901061052 | 76 | 194 | 1.7 | 8.7 | 0.00 | 0.07 | 0.00 | 75 | 1013.4 |
| 20260901060559 | 77 | 169 | 1.7 | 6.1 | 0.00 | 0.07 | 0.00 | 75 | 1013.6 |
| 20260901060504 | 77 | 205 | 1.7 | 7.0 | 0.00 | 0.07 | 0.00 | 75 | 1013.6 |
| 20260901060006 | 77 | 360 | 2.6 | 8.7 | 0.00 | 0.09 | 0.00 | 75 | 1013.6 |
| 20260901055516 | 77 | 182 | 2.6 | 8.7 | 0.00 | 0.09 | 0.00 | 75 | 1013.6 |
| 20260901055059 | 77 | 161 | 3.5 | 7.8 | 0.00 | 0.09 | 0.00 | 75 | 1013.8 |
| 20260901054549 | 77 | 360 | 1.7 | 8.7 | 0.00 | 0.09 | 0.00 | 74 | 1014.0 |
| 20260901054058 | 77 | 178 | 1.7 | 7.8 | 0.00 | 0.09 | 0.00 | 74 | 1014.1 |
| 20260901053511 | 77 | 171 | 2.6 | 9.6 | 0.00 | 0.09 | 0.00 | 73 | 1014.2 |
| 20260901053009 | 77 | 175 | 2.6 | 9.6 | 0.00 | 0.09 | 0.00 | 74 | 1014.2 |
| 20260901052525 | 77 | 200 | 2.6 | 7.8 | 0.00 | 0.09 | 0.00 | 74 | 1014.2 |
| 20260901052025 | 77 | 189 | 2.6 | 6.1 | 0.00 | 0.09 | 0.00 | 72 | 1014.2 |
| 20260901051527 | 77 | 194 | 1.7 | 6.1 | 0.00 | 0.09 | 0.00 | 72 | 1014.2 |
| 20260901051038 | 77 | 184 | 1.7 | 7.0 | 0.00 | 0.09 | 0.00 | 72 | 1014.3 |
| 20260901050548 | 77 | 178 | 2.6 | 7.0 | 0.00 | 0.09 | 0.00 | 71 | 1014.5 |
| 20260901045503 | 77 | 205 | 0.9 | 10.4 | 0.00 | 0.15 | 0.00 | 71 | 1014.7 |
| 20260901045056 | 77 | 194 | 2.6 | 10.4 | 0.00 | 0.15 | 0.00 | 70 | 1014.6 |
| 20260901044613 | 77 | 170 | 2.6 | 8.7 | 0.00 | 0.15 | 0.00 | 71 | 1014.6 |
| 20260901044028 | 77 | 192 | 1.7 | 6.1 | 0.00 | 0.15 | 0.00 | 71 | 1014.5 |
| 20260901043535 | 77 | 192 | 1.7 | 7.0 | 0.00 | 0.15 | 0.00 | 71 | 1014.4 |
| 20260901043048 | 77 | 194 | 1.7 | 7.0 | 0.00 | 0.15 | 0.00 | 71 | 1014.3 |
| 20260901042553 | 77 | 205 | 0.9 | 3.5 | 0.00 | 0.15 | 0.00 | 71 | 1014.4 |
| 20260901042037 | 76 | 213 | 0.9 | 5.2 | 0.00 | 0.15 | 0.00 | 71 | 1014.3 |
| 20260901041541 | 76 | 185 | 0.9 | 4.3 | 0.00 | 0.15 | 0.00 | 71 | 1014.4 |
| 20260901041050 | 76 | 185 | 1.7 | 4.3 | 0.00 | 0.15 | 0.00 | 71 | 1014.4 |
| 20260901040535 | 76 | 360 | 1.7 | 4.3 | 0.00 | 0.15 | 0.00 | 71 | 1014.5 |
| 20260901040041 | 76 | 194 | 0.9 | 3.5 | 0.00 | 0.21 | 0.15 | 71 | 1014.6 |
| 20260901035513 | 76 | 184 | 0.9 | 3.5 | 0.00 | 0.21 | 0.15 | 72 | 1014.6 |
| 20260901035108 | 76 | 200 | 0.9 | 3.5 | 0.00 | 0.21 | 0.15 | 72 | 1014.6 |
| 20260901034600 | 76 | 195 | 0.9 | 3.5 | 0.00 | 0.21 | 0.15 | 72 | 1014.6 |
| 20260901034040 | 76 | 191 | 0.9 | 3.5 | 0.00 | 0.21 | 0.15 | 72 | 1014.6 |
| 20260901033552 | 76 | 196 | 0.9 | 3.5 | 0.00 | 0.21 | 0.15 | 72 | 1014.6 |
| 20260901033102 | 76 | 202 | 0.9 | 3.5 | 0.00 | 0.21 | 0.15 | 72 | 1014.6 |
| 20260901032504 | 76 | 186 | 0.9 | 4.3 | 0.00 | 0.21 | 0.15 | 72 | 1014.5 |
| 20260901032101 | 76 | 187 | 0.9 | 4.3 | 0.00 | 0.21 | 0.15 | 72 | 1014.6 |
| 20260901031559 | 76 | 225 | 0.9 | 5.2 | 0.00 | 0.21 | 0.15 | 73 | 1014.6 |
| 20260901031100 | 76 | 183 | 2.6 | 5.2 | 0.00 | 0.21 | 0.15 | 73 | 1014.7 |
| 20260901030508 | 76 | 179 | 0.9 | 3.5 | 0.00 | 0.21 | 0.15 | 73 | 1014.6 |
| 20260901030038 | 76 | 179 | 0.9 | 3.5 | 0.00 | 0.21 | 0.15 | 74 | 1014.7 |
| 20260901025547 | 76 | 205 | 0.9 | 3.5 | 0.00 | 0.21 | 0.15 | 73 | 1014.6 |
| 20260901025022 | 76 | 197 | 0.9 | 3.5 | 0.00 | 0.21 | 0.15 | 73 | 1014.7 |
| 20260901024512 | 76 | 196 | 0.9 | 5.2 | 0.00 | 0.21 | 0.15 | 73 | 1014.7 |
| 20260901024022 | 76 | 360 | 1.7 | 5.2 | 0.00 | 0.21 | 0.15 | 73 | 1014.7 |
| 20260901023531 | 76 | 192 | 0.9 | 2.6 | 0.00 | 0.21 | 0.15 | 74 | 1014.7 |
| 20260901023040 | 76 | 194 | 0.9 | 2.6 | 0.00 | 0.21 | 0.15 | 74 | 1014.7 |
| 20260901022542 | 76 | 194 | 0.9 | 4.3 | 0.00 | 0.21 | 0.15 | 75 | 1014.9 |
| 20260901022036 | 75 | 195 | 0.9 | 4.3 | 0.00 | 0.21 | 0.15 | 77 | 1014.8 |
| 20260901021602 | 75 | 195 | 0.9 | 4.3 | 0.00 | 0.21 | 0.15 | 78 | 1014.8 |
| 20260901021030 | 75 | 178 | 1.7 | 4.3 | 0.00 | 0.21 | 0.15 | 79 | 1014.9 |
| 20260901020540 | 74 | 161 | 1.7 | 4.3 | 0.00 | 0.21 | 0.15 | 80 | 1014.9 |
| 20260901020110 | 74 | 244 | 1.7 | 3.5 | 0.00 | 0.22 | 0.15 | 82 | 1014.9 |
| 20260901015505 | 74 | 209 | 0.0 | 3.5 | 0.00 | 0.22 | 0.15 | 86 | 1014.9 |
| 20260901015056 | 73 | 209 | 0.9 | 3.5 | 0.00 | 0.22 | 0.15 | 87 | 1015.0 |
| 20260901014506 | 73 | 277 | 0.0 | 0.0 | 0.00 | 0.22 | 0.15 | 87 | 1015.1 |
| 20260901014048 | 73 | 276 | 0.0 | 0.0 | 0.00 | 0.22 | 0.15 | 87 | 1015.1 |
| 20260901013554 | 74 | 279 | 0.0 | 0.0 | 0.00 | 0.22 | 0.15 | 87 | 1015.2 |
| 20260901013105 | 74 | 281 | 0.0 | 0.0 | 0.00 | 0.22 | 0.15 | 87 | 1015.3 |
| 20260901012603 | 74 | 281 | 0.0 | 1.7 | 0.00 | 0.22 | 0.15 | 87 | 1015.3 |
| 20260901012502 | 74 | 281 | 0.0 | 1.7 | 0.00 | 0.22 | 0.15 | 86 | 1015.3 |
| 20260901012001 | 74 | 281 | 0.0 | 1.7 | 0.00 | 0.22 | 0.15 | 86 | 1015.4 |
| 20260901011512 | 74 | 281 | 0.0 | 1.7 | 0.00 | 0.22 | 0.15 | 86 | 1015.3 |
| 20260901011022 | 74 | 229 | 0.0 | 1.7 | 0.00 | 0.22 | 0.15 | 86 | 1015.3 |
| 20260901010529 | 74 | 229 | 0.0 | 2.6 | 0.00 | 0.22 | 0.15 | 86 | 1015.4 |
| 20260901010044 | 74 | 228 | 0.9 | 2.6 | 0.00 | 0.23 | 0.15 | 86 | 1015.4 |
| 20260901005548 | 74 | 229 | 0.0 | 1.7 | 0.00 | 0.23 | 0.15 | 86 | 1015.4 |
| 20260901005051 | 74 | 229 | 0.0 | 1.7 | 0.00 | 0.23 | 0.15 | 85 | 1015.4 |
| 20260901004557 | 74 | 229 | 0.0 | 1.7 | 0.00 | 0.23 | 0.15 | 86 | 1015.3 |
| 20260901004004 | 74 | 229 | 0.0 | 1.7 | 0.00 | 0.23 | 0.15 | 85 | 1015.4 |
| 20260901003519 | 74 | 228 | 0.0 | 0.9 | 0.00 | 0.23 | 0.15 | 85 | 1015.4 |
| 20260901003022 | 75 | 228 | 0.0 | 0.9 | 0.00 | 0.23 | 0.15 | 84 | 1015.3 |
| 20260901002516 | 75 | 228 | 0.0 | 2.6 | 0.00 | 0.23 | 0.15 | 84 | 1015.2 |
| 20260901002022 | 75 | 228 | 0.0 | 2.6 | 0.00 | 0.23 | 0.15 | 83 | 1015.2 |
| 20260901001534 | 75 | 228 | 0.9 | 2.6 | 0.00 | 0.23 | 0.15 | 83 | 1015.1 |
| 20260901001044 | 75 | 227 | 0.9 | 3.5 | 0.00 | 0.23 | 0.15 | 83 | 1015.1 |
| 20260901000551 | 75 | 215 | 0.0 | 1.7 | 0.00 | 0.23 | 0.15 | 83 | 1015.1 |
| 20260901000002 | 75 | 213 | 0.0 | 4.3 | 0.00 | 0.23 | 0.15 | 83 | 1014.9 |
| 20260831235513 | 75 | 214 | 0.9 | 4.3 | 0.00 | 0.23 | 0.15 | 83 | 1014.8 |
| 20260831235053 | 75 | 304 | 0.0 | 3.5 | 0.00 | 0.23 | 0.15 | 83 | 1014.8 |
| 20260831234555 | 76 | 254 | 0.0 | 3.5 | 0.00 | 0.23 | 0.15 | 83 | 1014.7 |
| 20260831234029 | 76 | 255 | 0.0 | 1.7 | 0.00 | 0.23 | 0.15 | 83 | 1014.8 |
| 20260831233535 | 76 | 256 | 0.0 | 1.7 | 0.00 | 0.23 | 0.15 | 82 | 1014.7 |
| 20260831233044 | 77 | 256 | 0.0 | 0.9 | 0.00 | 0.23 | 0.15 | 82 | 1014.8 |
| 20260831232539 | 77 | 256 | 0.0 | 0.9 | 0.00 | 0.23 | 0.15 | 82 | 1014.9 |
| 20260831232034 | 77 | 256 | 0.0 | 1.7 | 0.00 | 0.23 | 0.15 | 82 | 1015.0 |
| 20260831231536 | 77 | 256 | 0.0 | 1.7 | 0.00 | 0.23 | 0.15 | 81 | 1015.0 |
| 20260831231022 | 77 | 256 | 0.0 | 1.7 | 0.00 | 0.23 | 0.15 | 82 | 1015.0 |
| 20260831230526 | 77 | 256 | 0.0 | 1.7 | 0.00 | 0.23 | 0.15 | 82 | 1015.0 |
| 20260831230030 | 77 | 256 | 0.0 | 1.7 | 0.00 | 0.23 | 0.15 | 82 | 1015.2 |
| 20260831225535 | 77 | 256 | 0.0 | 2.6 | 0.00 | 0.23 | 0.15 | 83 | 1015.4 |
| 20260831225045 | 77 | 255 | 0.9 | 3.5 | 0.00 | 0.23 | 0.15 | 83 | 1015.4 |
| 20260831224552 | 77 | 254 | 0.9 | 3.5 | 0.00 | 0.23 | 0.15 | 84 | 1015.7 |
| 20260831224035 | 77 | 254 | 0.9 | 2.6 | 0.00 | 0.23 | 0.15 | 84 | 1015.8 |
| 20260831223537 | 77 | 254 | 0.9 | 2.6 | 0.00 | 0.23 | 0.15 | 84 | 1015.9 |
| 20260831223044 | 77 | 254 | 0.0 | 0.0 | 0.00 | 0.23 | 0.15 | 85 | 1015.8 |
| 20260831222533 | 77 | 256 | 0.0 | 0.0 | 0.00 | 0.23 | 0.15 | 85 | 1015.7 |
| 20260831222009 | 77 | 256 | 0.0 | 0.0 | 0.00 | 0.23 | 0.15 | 84 | 1015.6 |
| 20260831221602 | 77 | 256 | 0.0 | 0.0 | 0.00 | 0.23 | 0.15 | 85 | 1015.5 |
| 20260831221501 | 77 | 256 | 0.0 | 0.0 | 0.00 | 0.23 | 0.15 | 85 | 1015.6 |
| 20260831221059 | 76 | 256 | 0.0 | 0.0 | 0.00 | 0.23 | 0.15 | 85 | 1015.6 |
| 20260831220507 | 77 | 256 | 0.0 | 0.0 | 0.00 | 0.23 | 0.15 | 85 | 1015.5 |
| 20260831220022 | 76 | 256 | 0.0 | 0.0 | 0.00 | 0.25 | 0.15 | 85 | 1015.6 |
| 20260831215522 | 76 | 256 | 0.0 | 0.0 | 0.00 | 0.25 | 0.15 | 85 | 1015.6 |
| 20260831215035 | 76 | 256 | 0.0 | 0.0 | 0.00 | 0.25 | 0.15 | 85 | 1015.7 |
| 20260831214535 | 76 | 256 | 0.0 | 0.0 | 0.00 | 0.25 | 0.15 | 85 | 1015.7 |
| 20260831214046 | 76 | 256 | 0.0 | 0.0 | 0.00 | 0.25 | 0.15 | 85 | 1015.7 |
| 20260831213553 | 76 | 256 | 0.0 | 0.0 | 0.00 | 0.25 | 0.15 | 85 | 1015.8 |
| 20260831213056 | 76 | 256 | 0.0 | 0.0 | 0.00 | 0.25 | 0.15 | 85 | 1015.8 |
| 20260831212504 | 76 | 256 | 0.0 | 0.0 | 0.00 | 0.25 | 0.15 | 86 | 1015.7 |